Regional Weather Roundup
Issued by NWS

Home | Current Version | Previous Version | Text Only | Print | Product List | Glossary Off
Versions: 1 2 3 4 5 6 7 8 9 10 11 12 13 14 15 16 17 18 19 20 21 22 23 24 25 26 27 28 29 30 31 32 33 34 35 36 37 38 39 40 41 42 43 44 45 46 47 48 49 50

000
ASUS43 KOAX 270810
RWRNE

WEATHER ROUNDUP FOR NEBRASKA
NATIONAL WEATHER SERVICE OMAHA NE
200 AM CST SAT DEC 27 2014

NOTES: SATELLITE DATA IS BEING USED TO AUGMENT CLOUD COVER ABOVE
       12000 FEET.
       "FAIR" INDICATES FEW OR NO CLOUDS BELOW 12,000 FEET WITH NO
       SIGNIFICANT WEATHER AND/OR OBSTRUCTIONS TO VISIBILITY.

  * THESE STATIONS DO NOT REPORT WEATHER SUCH AS RAIN...SNOW OR FOG.

NEZ001>004-019>022-054>056-270900-
NEBRASKA PANHANDLE

CITY           SKY/WX    TMP DP  RH WIND       PRES   REMARKS
SCOTTSBLUFF    CLOUDY    13  11  92 NW5       30.12S WCI   5
ALLIANCE       CLOUDY    17  15  92 NW3       30.09S
CHADRON        CLOUDY    18  14  84 W5        30.14S WCI  11
KIMBALL        PTCLDY     3   1  91 W9        30.06S WCI -12
SIDNEY         MOCLDY    10   7  87 W10       30.10S WCI  -4
$$

NEZ057>060-069>072-079>082-270900-
SOUTHWEST NEBRASKA

CITY           SKY/WX    TMP DP  RH WIND       PRES   REMARKS
NORTH PLATTE   PTCLDY     5   3  91 NW6       30.16R WCI  -6
IMPERIAL       PTCLDY    13   9  84 W10       30.15S WCI   0
LEXINGTON      CLEAR     11   8  91 W10       30.16R WCI  -3
MCCOOK         CLEAR     10   7  87 W10       30.17S WCI  -4
OGALLALA       CLOUDY    13  11  92 W8        30.14S WCI   1
$$

NEZ005>010-023>029-035>040-094-270900-
NORTH CENTRAL NEBRASKA

CITY           SKY/WX    TMP DP  RH WIND       PRES   REMARKS
VALENTINE      FLURRIES  16  12  84 W10       30.14S WCI   4
AINSWORTH      FLURRIES  16  13  89 NW7       30.12S WCI   6
BROKEN BOW     LGT SNOW  19  15  84 NW10      30.13S FOG     WCI   7
O`NEILL        LGT SNOW  18  17  95 NW12      30.14S WCI   6
ORD            LGT SNOW  19  15  84 NW14      30.15R FOG     WCI   6
THEDFORD       LGT SNOW  13  11  91 W7        30.14S WCI   3
$$

NEZ041-046>049-061>064-073>077-083>087-270900-
SOUTH CENTRAL NEBRASKA

CITY           SKY/WX    TMP DP  RH WIND       PRES   REMARKS
GRAND ISLAND   CLOUDY    18  14  84 NW10      30.15R WCI   6
AURORA         FLURRIES  20  17  91 NW13      30.13R WCI   7
HASTINGS       CLEAR     18  14  84 NW10      30.14R WCI   6
HEBRON         CLEAR     22  19  86 NW10      30.15R WCI  11
HOLDREGE       CLEAR     14  11  90 NW7       30.16R WCI   4
KEARNEY *      CLEAR     16  10  79 W10       30.15R WCI   3
YORK           MOCLDY    21  19  93 NW16      30.12R WCI   7
$$

NEZ011>018-030>034-042>045-270900-
NORTHEAST NEBRASKA

CITY           SKY/WX    TMP DP  RH WIND       PRES   REMARKS
NORFOLK        LGT SNOW  22  18  85 NW12      30.11R FOG     WCI  10
ALBION         LGT SNOW  21  17  83 NW10      30.13R WCI  10
BLAIR          CLOUDY    27  24  88 NW13      30.04R WCI  16
COLUMBUS *     PTCLDY    23  16  74 NW16      30.12R WCI  10
FREMONT        LGT SNOW  26  24  92 NW14      30.10R WCI  15
TEKAMAH        FLURRIES  27  23  85 NW15      30.07R WCI  15
WAYNE          LGT SNOW  23  20  89 NW14      30.10R WCI  10
$$

NEZ050>053-065>068-078-088>093-270900-
SOUTHEAST NEBRASKA

CITY           SKY/WX    TMP DP  RH WIND       PRES   REMARKS
LINCOLN        FLURRIES  26  22  84 NW13      30.12R WCI  15
OMAHA EPPLEY   CLOUDY    28  25  88 NW14      30.07R WCI  17
BEATRICE       CLOUDY    26  23  89 NW14      30.11R WCI  14
FALLS CITY     CLOUDY    33  30  88 W14       30.07R WCI  23
NEBRASKA CITY  CLOUDY    31  31 100 NW13      30.06R WCI  21
PLATTSMOUTH    CLOUDY    29  26  89 NW14      30.05R WCI  18
$$

NEZ044-045-051>053-067-270900-
OMAHA AREA

CITY           SKY/WX    TMP DP  RH WIND       PRES   REMARKS
OMAHA EPPLEY   CLOUDY    28  25  88 NW14      30.07R WCI  17
BLAIR          CLOUDY    27  24  88 NW13      30.04R WCI  16
FREMONT        LGT SNOW  26  24  92 NW14      30.10R WCI  15
MILLARD        CLOUDY    28  24  84 NW12      30.06R WCI  18
OFFUTT AFB     MIX PCPN  29  26  88 NW10      30.05R WCI  20
PLATTSMOUTH    CLOUDY    29  26  89 NW14      30.05R WCI  18
WAHOO          FLURRIES  26  22  86 NW14G20   30.09R WCI  14
$$


USA.gov is the U.S. government's official web portal to all federal, state and local government web resources and services.